Weather History for Caumont Avignon, France

Change the Weather History Date:

Saturday, February 2, 2013

  Actual Average (LFTW) Record (LFTW)
Temperature  
Mean Temperature 47 °F -  
Max Temperature 53 °F 50 °F 57 °F (2002)
Min Temperature 41 °F 37 °F 26 °F (2012)
Degree Days  
Heating Degree Days 18    
Moisture  
Dew Point 36 °F    
Average Humidity 67    
Maximum Humidity 94    
Minimum Humidity 43    
Precipitation  
Precipitation 0.00 in - - ()
Sea Level Pressure  
Sea Level Pressure 29.51 in    
Wind  
Wind Speed 17 mph ()    
Max Wind Speed 45 mph    
Max Gust Speed 62 mph    
Visibility 6.2 miles    
Events Rain    
Averages and records for this station are not official NWS values.
T = Trace of Precipitation, MM = Missing Value Source: Averaged Metar Reports

Daily Weather History Graph

Daily Weather History Graph

Search for Another Location

Airport:

Trip Planner

Search our weather history database for the weather conditions in past years. The results will help you decide how hot, cold, wet, or windy it might be!

Date:

Astronomy

Feb. 02, 2013 Rise Set
Actual Time 7:56 AM CET 5:52 PM CET
Civil Twilight 7:25 AM CET 6:22 PM CET
Nautical Twilight 6:51 AM CET 6:57 PM CET
Astronomical Twilight 6:17 AM CET 7:31 PM CET
Moon No Moon Rise 10:41 AM CET (2/2)
Length of Visible Light 10h 57m
Length of Day
9h 55m
Waning Gibbous, 62% of the Moon is Illuminated
Feb 2
Waning Gibbous
Feb 3
Last Quarter
Feb 10
New
Feb 17
First Quarter
Feb 25
Full

Hourly Weather History & Observations

Time (CET) Temp. Windchill Dew Point Humidity Pressure Visibility Wind Dir Wind Speed Gust Speed Precip Events Conditions
12:00 AM 53.6 °F - 50.0 °F 88% 29.59 in 6.2 mi SW 6.9 mph - N/A Rain Light Rain
12:30 AM 51.8 °F - 50.0 °F 94% 29.59 in 6.2 mi SSW 5.8 mph - N/A Rain Light Rain
1:00 AM 51.8 °F - 50.0 °F 94% 29.56 in 6.2 mi Variable 2.3 mph - N/A   Overcast
1:30 AM 51.8 °F - 50.0 °F 94% 29.53 in 6.2 mi SW 5.8 mph - N/A Rain Light Rain
2:00 AM 51.8 °F - 48.2 °F 88% 29.50 in 6.2 mi Variable 3.5 mph - N/A   Overcast
2:30 AM 51.8 °F - 48.2 °F 88% 29.50 in 6.2 mi South 3.5 mph - N/A   Unknown
3:00 AM 50.0 °F - 48.2 °F 94% 29.47 in 6.2 mi SSW 4.6 mph - N/A   Unknown
3:30 AM 50.0 °F - 48.2 °F 94% 29.47 in 6.2 mi Variable 2.3 mph - N/A   Overcast
4:00 AM 50.0 °F - 48.2 °F 94% 29.44 in 6.2 mi Variable 1.2 mph - N/A   Mostly Cloudy
4:30 AM 50.0 °F - 46.4 °F 87% 29.44 in 6.2 mi Variable 1.2 mph - N/A   Overcast
5:00 AM 48.2 °F - 46.4 °F 93% 29.42 in 6.2 mi SSW 3.5 mph - N/A   Overcast
5:30 AM 48.2 °F - 46.4 °F 93% 29.42 in 6.2 mi Variable 3.5 mph - N/A   Mostly Cloudy
6:00 AM 50.0 °F - 46.4 °F 87% 29.42 in 6.2 mi NNW 11.5 mph 26.5 mph N/A   Mostly Cloudy
6:30 AM 48.2 °F - 41.0 °F 76% 29.44 in 6.2 mi North 20.7 mph - N/A   Mostly Cloudy
7:00 AM 48.2 °F - 37.4 °F 66% 29.47 in 6.2 mi North 21.9 mph 34.5 mph N/A   Unknown
7:30 AM 46.4 °F 38.7 °F 35.6 °F 66% 29.47 in 6.2 mi North 20.7 mph 33.4 mph N/A   Unknown
8:00 AM 46.4 °F 38.3 °F 35.6 °F 66% 29.47 in 6.2 mi North 23.0 mph 35.7 mph N/A   Unknown
8:30 AM 46.4 °F 37.7 °F 35.6 °F 66% 29.47 in 6.2 mi North 26.5 mph 41.4 mph N/A   Unknown
9:00 AM 46.4 °F 37.9 °F 35.6 °F 66% 29.50 in 6.2 mi North 25.3 mph 42.6 mph N/A   Unknown
9:30 AM 46.4 °F 37.7 °F 35.6 °F 66% 29.50 in 6.2 mi NNW 26.5 mph - N/A   Scattered Clouds
10:00 AM 46.4 °F 37.9 °F 35.6 °F 66% 29.50 in 6.2 mi NNW 25.3 mph 41.4 mph N/A   Unknown
10:30 AM 46.4 °F 37.5 °F 33.8 °F 62% 29.50 in 6.2 mi North 27.6 mph - N/A   Partly Cloudy
11:00 AM 48.2 °F - 32.0 °F 54% 29.50 in 6.2 mi North 31.1 mph 46.0 mph N/A   Partly Cloudy
11:30 AM 48.2 °F - 32.0 °F 54% 29.50 in 6.2 mi North 34.5 mph - N/A   Unknown
12:00 PM 50.0 °F - 32.0 °F 50% 29.50 in 6.2 mi North 34.5 mph 49.5 mph N/A   Partly Cloudy
12:30 PM 48.2 °F - 30.2 °F 50% 29.47 in 6.2 mi North 38.0 mph 51.8 mph N/A   Partly Cloudy
1:00 PM 50.0 °F - 32.0 °F 50% 29.47 in 6.2 mi North 33.4 mph 48.3 mph N/A   Partly Cloudy
1:30 PM 50.0 °F - 28.4 °F 43% 29.47 in 6.2 mi North 39.1 mph 54.1 mph N/A   Mostly Cloudy
2:00 PM 48.2 °F - 30.2 °F 50% 29.47 in 6.2 mi North 35.7 mph 54.1 mph N/A   Overcast
2:30 PM 50.0 °F - 28.4 °F 43% 29.47 in 6.2 mi North 35.7 mph 54.1 mph N/A   Mostly Cloudy
3:00 PM 50.0 °F - 28.4 °F 43% 29.47 in 6.2 mi North 33.4 mph 49.5 mph N/A   Mostly Cloudy
3:30 PM 50.0 °F - 28.4 °F 43% 29.47 in 6.2 mi North 36.8 mph 56.4 mph N/A   Partly Cloudy
4:00 PM 48.2 °F - 30.2 °F 50% 29.50 in 6.2 mi North 31.1 mph 48.3 mph N/A   Scattered Clouds
4:30 PM 46.4 °F 36.9 °F 30.2 °F 53% 29.50 in 6.2 mi North 32.2 mph 50.6 mph N/A   Mostly Cloudy
5:00 PM 46.4 °F 36.7 °F 28.4 °F 50% 29.50 in 6.2 mi North 33.4 mph - N/A   Mostly Cloudy
5:30 PM 46.4 °F 37.0 °F 28.4 °F 50% 29.50 in 6.2 mi North 31.1 mph 49.5 mph N/A   Scattered Clouds
6:00 PM 46.4 °F 37.0 °F 28.4 °F 50% 29.53 in 6.2 mi North 31.1 mph 47.2 mph N/A   Partly Cloudy
6:30 PM 46.4 °F 37.0 °F 30.2 °F 53% 29.56 in 6.2 mi North 31.1 mph 48.3 mph N/A   Mostly Cloudy
7:00 PM 44.6 °F 34.1 °F 32.0 °F 61% 29.56 in 6.2 mi North 34.5 mph 51.8 mph N/A   Scattered Clouds
7:30 PM 42.8 °F 31.4 °F 35.6 °F 76% 29.59 in 6.2 mi North 35.7 mph 51.8 mph N/A Rain Light Rain
8:00 PM 41.0 °F 29.8 °F 35.6 °F 81% 29.62 in 6.2 mi North 29.9 mph 48.3 mph N/A Rain Light Rain
8:30 PM 42.8 °F 32.7 °F 33.8 °F 70% 29.62 in 6.2 mi North 27.6 mph 42.6 mph N/A   Scattered Clouds
9:00 PM 44.6 °F 34.2 °F 30.2 °F 57% 29.62 in 6.2 mi North 33.4 mph 51.8 mph N/A   Partly Cloudy
9:30 PM 42.8 °F 31.8 °F 28.4 °F 57% 29.62 in 6.2 mi North 33.4 mph 49.5 mph N/A   Partly Cloudy
10:30 PM 42.8 °F 30.3 °F 26.6 °F 53% 29.59 in 6.2 mi North 44.9 mph 62.1 mph N/A   Partly Cloudy
11:00 PM 42.8 °F 30.8 °F 24.8 °F 49% 29.59 in 6.2 mi North 40.3 mph 62.1 mph N/A   Unknown
11:30 PM 42.8 °F 31.3 °F 24.8 °F 49% 29.65 in 6.2 mi North 36.8 mph 54.1 mph N/A   Partly Cloudy